"Pseudo-MPEC" for A10Y90M

Created 2023 Dec 3 16:22:02 UT using Find_Orb

Click here for an explanation of pseudo-MPECs

 
 Astrometry: 
     A10Y90M* C2023 11 15:X^5AstrometryE)!tt!`redacted;P,J`gN5hBIclickY-uIUdRW68
     A10Y90M  C2023 11 15KXd0mdmn8gIy]S_a9here6Nn2Q(sLxv((-NGqA1di#+mVhFoP:u@W68
     A10Y90M  C2023 11 15BD,tL%$!\@]jn*aio2fors1%OE*@@$bd0\j5]njshMc\X%KM+^=PW68
     A10Y90M  C2023 11 15pCOcIXhhXWexplanationS'!Mo)6R;;WBFoC=gs30hNKFT9iJLF$W68

Station data:
(W68) ATLAS Chile, Rio Hurtado  (S30.471010 W70.764980)  Chile.  Observers L.
   Denneau, R. Siverd, J. Tonry, H. Weiland. Measurers L. Denneau, N.
   Erasmus, A. Fitzsimmons, A. Lawrence, J. Robinson, R. Siverd, J. Tonry, H.
   Weiland. 0.5-m reflector + CCD.

Orbital elements:  A10Y90M
   Perihelion 2024 Feb 18.09234 +/- 26.7 TT =  2:12:58 (JD 2460358.59234)
Epoch 2023 Nov 15.0 TT = JDT 2460263.5   Earth MOID: 0.0044   Ve: 0.0802
M 237.68336819 +/- 41               (J2000 ecliptic)             AutoNEOCP
n   1.28629323 +/- 0.282            Peri.  324.62404 +/- 40
a   0.83735456 +/- 0.123            Node   231.37753 +/- 0.31
e   0.2671520 +/- 0.0823            Incl.   31.70417 +/- 15
P   0.77/279.87d           H 24.09  G  0.15   U 11.9  SR
q 0.61365356 +/- 0.12    Q 1.06105556 +/- 0.346
From 4 observations 2023 Nov. 15 (44.7 min); mean residual 1".51
Residuals in arcseconds: 
231115 W68  .07-  3.0+    231115 W68  .00   2.9-    
231115 W68  .09+  .77-    231115 W68  .02-  .60+    

Ephemerides (geocentric):
Date (UTC) HH   RA             Dec           delta  r     elong  mag " sig PA
---- --------  ------------   ------------  ------ ------ -----  --- --------
2023 12 03 16  21 22 24.303   -78 22 06.86  .18159 .92276  64.7 24.1 433'  69
2023 12 03 17  21 22 15.444   -78 21 52.06  .18197 .92259  64.6 24.1 434'  69
2023 12 03 18  21 22 06.590   -78 21 37.28  .18235 .92241  64.6 24.1 434'  69
2023 12 03 19  21 21 57.742   -78 21 22.51  .18274 .92224  64.6 24.1 434'  69
2023 12 03 20  21 21 48.898   -78 21 07.75  .18312 .92206  64.6 24.1 434'  69
2023 12 03 21  21 21 40.060   -78 20 53.01  .18350 .92189  64.5 24.1 435'  69
2023 12 03 22  21 21 31.226   -78 20 38.28  .18388 .92171  64.5 24.1 435'  69
2023 12 03 23  21 21 22.398   -78 20 23.56  .18427 .92153  64.5 24.1 435'  69
2023 12 04 00  21 21 13.574   -78 20 08.86  .18465 .92136  64.5 24.1 435'  69
2023 12 04 01  21 21 04.754   -78 19 54.16  .18503 .92118  64.5 24.1 436'  69
2023 12 04 02  21 20 55.939   -78 19 39.48  .18541 .92100  64.4 24.1 436'  69
2023 12 04 03  21 20 47.128   -78 19 24.81  .18579 .92083  64.4 24.1 436'  69
2023 12 04 04  21 20 38.322   -78 19 10.15  .18618 .92065  64.4 24.1 436'  69
2023 12 04 05  21 20 29.520   -78 18 55.50  .18656 .92047  64.4 24.2 437'  69
2023 12 04 06  21 20 20.722   -78 18 40.86  .18694 .92030  64.3 24.2 437'  69
2023 12 04 07  21 20 11.927   -78 18 26.23  .18732 .92012  64.3 24.2 437'  69
2023 12 04 08  21 20 03.137   -78 18 11.60  .18770 .91994  64.3 24.2 437'  69
2023 12 04 09  21 19 54.350   -78 17 56.99  .18808 .91977  64.3 24.2 437'  69
2023 12 04 10  21 19 45.567   -78 17 42.39  .18847 .91959  64.2 24.2 438'  69
2023 12 04 11  21 19 36.788   -78 17 27.79  .18885 .91941  64.2 24.2 438'  69
2023 12 04 12  21 19 28.012   -78 17 13.21  .18923 .91923  64.2 24.2 438'  69
2023 12 04 13  21 19 19.239   -78 16 58.63  .18961 .91906  64.2 24.2 438'  69
2023 12 04 14  21 19 10.470   -78 16 44.05  .18999 .91888  64.2 24.2 439'  69
2023 12 04 15  21 19 01.704   -78 16 29.49  .19037 .91870  64.1 24.2 439'  69
2023 12 04 16  21 18 52.941   -78 16 14.93  .19075 .91852  64.1 24.2 439'  69
2023 12 04 17  21 18 44.181   -78 16 00.38  .19113 .91835  64.1 24.2 439'  69
2023 12 04 18  21 18 35.424   -78 15 45.83  .19152 .91817  64.1 24.2 440'  69
2023 12 04 19  21 18 26.669   -78 15 31.29  .19190 .91799  64.0 24.2 440'  69
2023 12 04 20  21 18 17.918   -78 15 16.75  .19228 .91781  64.0 24.2 440'  69
2023 12 04 21  21 18 09.169   -78 15 02.22  .19266 .91763  64.0 24.2 440'  69
2023 12 04 22  21 18 00.423   -78 14 47.70  .19304 .91745  64.0 24.2 441'  69
2023 12 04 23  21 17 51.679   -78 14 33.18  .19342 .91728  64.0 24.2 441'  69
2023 12 05 00  21 17 42.937   -78 14 18.66  .19380 .91710  63.9 24.2 441'  68
2023 12 05 01  21 17 34.198   -78 14 04.15  .19418 .91692  63.9 24.2 441'  68
2023 12 05 02  21 17 25.461   -78 13 49.64  .19456 .91674  63.9 24.2 442'  68
2023 12 05 03  21 17 16.726   -78 13 35.13  .19494 .91656  63.9 24.2 442'  68
2023 12 05 04  21 17 07.994   -78 13 20.63  .19532 .91638  63.8 24.2 442'  68
2023 12 05 05  21 16 59.263   -78 13 06.12  .19570 .91620  63.8 24.2 442'  68
2023 12 05 06  21 16 50.534   -78 12 51.63  .19608 .91602  63.8 24.3 443'  68
2023 12 05 07  21 16 41.807   -78 12 37.13  .19646 .91584  63.8 24.3 443'  68
2023 12 05 08  21 16 33.082   -78 12 22.63  .19684 .91567  63.8 24.3 443'  68
2023 12 05 09  21 16 24.359   -78 12 08.14  .19722 .91549  63.7 24.3 443'  68
2023 12 05 10  21 16 15.637   -78 11 53.65  .19760 .91531  63.7 24.3 444'  68
2023 12 05 11  21 16 06.916   -78 11 39.15  .19798 .91513  63.7 24.3 444'  68
2023 12 05 12  21 15 58.198   -78 11 24.66  .19836 .91495  63.7 24.3 444'  68
2023 12 05 13  21 15 49.480   -78 11 10.17  .19874 .91477  63.6 24.3 444'  68
2023 12 05 14  21 15 40.764   -78 10 55.68  .19912 .91459  63.6 24.3 445'  68
2023 12 05 15  21 15 32.049   -78 10 41.19  .19950 .91441  63.6 24.3 445'  68